Time,TemperatureF,DewpointF,PressureIn,WindDirection,WindDirectionDegrees,WindSpeedMPH,WindSpeedGustMPH,Humidity,HourlyPrecipIn,Conditions,Clouds,dailyrainin,SoftwareType,DateUTC
2013-03-01 00:33:00,47.0,0.0,30.27,NNW,332,2.0,9.0,14,0.00,,,0.00,weatherlink.com 1.10,2013-03-01 07:33:00,
2013-03-01 01:21:00,47.4,0.0,30.26,WNW,297,2.0,11.0,14,0.00,,,0.00,weatherlink.com 1.10,2013-03-01 08:21:00,
2013-03-01 02:07:00,48.1,-1.0,30.25,WNW,293,4.0,12.0,13,0.00,,,0.00,weatherlink.com 1.10,2013-03-01 09:07:00,
2013-03-01 02:54:00,46.8,0.0,30.23,WNW,286,3.0,8.0,14,0.00,,,0.00,weatherlink.com 1.10,2013-03-01 09:54:00,
2013-03-01 04:30:00,47.2,0.0,30.24,NNW,328,4.0,12.0,14,0.00,,,0.00,weatherlink.com 1.10,2013-03-01 11:30:00,
2013-03-01 05:16:00,45.9,1.0,30.26,North,5,4.0,11.0,15,0.00,,,0.00,weatherlink.com 1.10,2013-03-01 12:16:00,
2013-03-01 06:03:00,44.0,2.0,30.27,NW,312,6.0,8.0,17,0.00,,,0.00,weatherlink.com 1.10,2013-03-01 13:03:00,
2013-03-01 06:49:00,43.1,2.0,30.27,NW,313,3.0,8.0,18,0.00,,,0.00,weatherlink.com 1.10,2013-03-01 13:49:00,
2013-03-01 07:35:00,46.4,3.0,30.29,NW,313,5.0,8.0,16,0.00,,,0.00,weatherlink.com 1.10,2013-03-01 14:35:00,
2013-03-01 08:22:00,49.6,5.0,30.30,North,9,2.0,11.0,16,0.00,,,0.00,weatherlink.com 1.10,2013-03-01 15:22:00,
2013-03-01 09:10:00,50.8,3.0,30.32,North,355,10.0,17.0,14,0.00,,,0.00,weatherlink.com 1.10,2013-03-01 16:10:00,
2013-03-01 09:58:00,54.1,6.0,30.31,NE,47,5.0,11.0,14,0.00,,,0.00,weatherlink.com 1.10,2013-03-01 16:58:00,
2013-03-01 10:46:00,56.2,6.0,30.32,NNE,21,2.0,9.0,13,0.00,,,0.00,weatherlink.com 1.10,2013-03-01 17:46:00,
2013-03-01 11:32:00,59.0,6.0,30.30,ENE,57,1.0,8.0,12,0.00,,,0.00,weatherlink.com 1.10,2013-03-01 18:32:00,
2013-03-01 12:20:00,62.6,7.0,30.28,ENE,67,4.0,10.0,11,0.00,,,0.00,weatherlink.com 1.10,2013-03-01 19:20:00,
2013-03-01 13:08:00,64.9,7.0,30.25,East,93,7.0,10.0,10,0.00,,,0.00,weatherlink.com 1.10,2013-03-01 20:08:00,
2013-03-01 13:56:00,66.3,6.0,30.22,ENE,69,4.0,9.0,9,0.00,,,0.00,weatherlink.com 1.10,2013-03-01 20:56:00,
2013-03-01 14:44:00,64.9,5.0,30.20,NW,308,4.0,6.0,9,0.00,,,0.00,weatherlink.com 1.10,2013-03-01 21:44:00,
2013-03-01 15:32:00,65.1,5.0,30.20,SW,217,2.0,5.0,9,0.00,,,0.00,weatherlink.com 1.10,2013-03-01 22:32:00,
2013-03-01 16:21:00,63.1,6.0,30.19,WSW,246,2.0,9.0,10,0.00,,,0.00,weatherlink.com 1.10,2013-03-01 23:21:00,
2013-03-01 17:10:00,61.5,6.0,30.18,SSW,196,4.0,8.0,11,0.00,,,0.00,weatherlink.com 1.10,2013-03-02 00:10:00,
2013-03-01 17:58:00,58.7,6.0,30.19,SSE,165,2.0,8.0,12,0.00,,,0.00,weatherlink.com 1.10,2013-03-02 00:58:00,
2013-03-01 18:46:00,55.1,8.0,30.20,South,184,0.0,1.0,15,0.00,,,0.00,weatherlink.com 1.10,2013-03-02 01:46:00,
2013-03-01 19:34:00,52.8,8.0,30.20,SW,235,1.0,4.0,16,0.00,,,0.00,weatherlink.com 1.10,2013-03-02 02:34:00,
2013-03-01 20:24:00,52.7,9.0,30.20,WSW,251,0.0,3.0,17,0.00,,,0.00,weatherlink.com 1.10,2013-03-02 03:24:00,
2013-03-01 21:11:00,49.2,12.0,30.22,WSW,250,0.0,2.0,22,0.00,,,0.00,weatherlink.com 1.10,2013-03-02 04:11:00,
2013-03-01 22:00:00,46.9,13.0,30.23,WSW,257,0.0,2.0,25,0.00,,,0.00,weatherlink.com 1.10,2013-03-02 05:00:00,
2013-03-01 22:48:00,47.2,12.0,30.23,WSW,258,0.0,3.0,24,0.00,,,0.00,weatherlink.com 1.10,2013-03-02 05:48:00,
2013-03-01 23:36:00,47.2,12.0,30.24,East,82,2.0,6.0,24,0.00,,,0.00,weatherlink.com 1.10,2013-03-02 06:36:00,